1st Responders/1st Detectors/Storm Spotters Weather Summary for Calloway County, KY

Forecast Maps


Reg. NEXRAD Animation


National Fire Danger: Day 1 & 2 Map

Current NWS Watch/Warnings

SPC Convective Day 1 Outlook


Day 2 Outlook

(Click images to enlarge|Page will refresh every 5 minutes)
UK Ag. Weather Center Desktop Severe Weather Service[HERE]
Calloway County, KY Hazardous Weather Outlook Webcast
(9 AM to 9 PM Mon-Fri)
[Fast]
[Dial-up]


UKAWC 1st Detectors/1st Responders Precision Weather Forecast For CALLOWAY County, Kentucky
(based on the NWS County Digital Forecast)

ISSUED AT 22:00 UTC ON SUNDAY JUL 22 2018
DAY SUNDAY MONDAY
CDT 3HR 6P 7P 8P 9P 10P 11P MIDN 1A 2A 3A 4A 5A 6A 7A 8A 9A 10A 11A NOON 1P 2P 3P 4P 5P 6P
MAX/MIN 81° -- -- -- -- -- -- -- -- -- -- -- -- 67° -- -- -- -- -- -- -- -- -- -- 83°
TEMP 79° 77° 76° 74° 72° 70° 68° 67° 67° 67° 67° 67° 67° 67° 70° 72° 74° 77° 79° 81° 83° 83° 83° 83° 81°
SKY COVER 76% 75% 75% 75% 75% 75% 74% 74% 73% 72% 71% 72% 72% 73% 72% 71% 70% 63% 49% 42% 41% 38% 36% 36% 35%
Clouds
DEW PT 70° 70° 70° 68° 68° 68° 67° 67° 67° 67° 67° 67° 67° 67° 68° 68° 68° 67° 67° 67° 67° 67° 67° 67° 67°
RH 71% 76% 81% 84% 90% 96% 96% 99% 100% 100% 99% 100% 99% 99% 96% 90% 81% 71% 66% 60% 58% 60% 60% 60% 62%
POP 12HR -- 28% -- -- -- -- -- -- -- -- -- -- -- 11% -- -- -- -- -- -- -- -- -- -- --
RAIN/SNOW (liq.equ) -- 0.02in -- -- -- -- -- 0.00in -- -- -- -- -- 0.00in -- -- -- -- -- 0.00in -- -- -- -- --
SNOWFALL -- 0in -- -- -- -- -- 0in -- -- -- -- -- 0in -- -- -- -- -- 0in -- -- -- -- --
WIND SPEED(MPH) 10 9 8 7 6 6 6 7 7 7 7 7 7 7 7 7 7 7 8 8 8 9 9 9 9
WIND Gust(MPH) 16 15 13 8 7 7 8 8 8 8 8 9 9 10 10 10 10 10 13 13 13 15 15 15 15
WIND DIR NW N N NW NW NW N N N N N N N N N N N N N N N N N N N
DEW -- Lgt Dew Lgt Dew Lgt Dew Mod Dew Mod Dew Mod Dew Mod Dew Mod Dew Mod Dew Mod Dew Mod Dew Mod Dew Mod Dew Mod Dew Mod Dew Lgt Dew -- -- -- -- -- -- -- --
HeatIndex 83 77 76 74 72 70 68 67 67 67 67 67 67 67 70 72 74 77 82 84 85 86 86 86 85
Rain Showers Chance -- -- -- -- -- -- -- -- -- -- -- -- -- -- -- -- -- -- -- -- -- -- -- --
Thunder Storm Slight Chance -- -- -- -- -- -- -- -- -- -- -- -- -- -- -- -- -- -- -- -- -- -- -- --
WIND CHILL -- -- -- -- -- -- -- -- -- -- -- -- -- -- -- -- -- -- -- -- -- -- -- -- --
SPRAY COND
DRY COND
LIVESTOCK HEATSTRESS 75.78 74.60 74.20 72.66 71.27 69.75 67.80 66.95 67.00 67.00 66.95 67.00 66.95 66.95 69.75 71.27 72.41 74.10 75.22 76.12 77.41 77.68 77.68 77.68 76.36



DAY TUESDAY WEDNESDAY THURSDAY FRIDAY SATURDAY SUNDAY
CDT 6HR 7P 8P 9P 10P 11P MIDN 1A 2A 3A 4A 5A 7A 10A 1P 4P 7P 10P 1A 4A 7A 10A 1P 4P 7P 1A 7A 1P 7P 1A 7A 1P 7P 1A 7A 1P 7P 1A 7A 1P 7P
MAX/MIN -- -- -- -- -- -- -- -- -- -- -- 67° -- -- 85° -- -- -- -- 68° -- -- 88° -- -- 68° 90° -- -- 70° 88° -- -- 68° 85° -- -- 68° 85° --
TEMP 79° 76° 74° 72° 72° 70° 70° 68° 67° 67° 67° 68° 79° 85° 85° 83° 74° 72° 70° 70° 81° 88° 88° 85° 72° 72° 88° 85° 72° 72° 86° 83° 72° 70° 85° 81° 72° 70° 83° 81°
SKY COVER 35% 34% 33% 32% 30% 26% 23% 21% 17% 14% 19% 32% 33% 42% 41% 33% 28% 20% 17% 14% 19% 18% 29% 14% 5% 10% 22% 36% 46% 49% 44% 54% 55% 58% 62% 68% 71% 77% 81% 74%
Clouds
DEW PT 67° 67° 67° 67° 67° 67° 67° 67° 65° 65° 65° 67° 70° 68° 68° 70° 70° 67° 68° 67° 70° 70° 70° 70° 68° 68° 68° 72° 67° 67° 67° 70° 67° 65° 70° 72° 70° 68° 72° 72°
RH 67% 73% 75% 81% 84% 87% 90% 93% 93% 93% 97% 93% 71% 56% 56% 64% 84% 87% 93% 93% 69% 55% 55% 62% 90% 90% 52% 65% 84% 87% 53% 63% 84% 84% 63% 72% 93% 96% 69% 74%
POP 12HR 13% -- -- -- -- -- -- -- -- -- -- 6% -- -- -- 9% -- -- -- 3% -- -- -- 6% -- 2% -- 14% -- 4% -- 15% -- 17% -- 41% -- 51% -- 50%
RAIN/SNOW (liq.equ) 0.00in -- -- -- -- -- 0.00in -- -- -- -- 0.00in -- 0.00in -- 0.00in -- 0.00in -- 0.00in -- 0.00in -- 0.00in -- -- -- -- -- -- -- -- -- -- -- -- -- -- -- --
SNOWFALL 0in -- -- -- -- -- 0in -- -- -- -- 0in -- 0in -- 0in -- 0in -- 0in -- 0in -- 0in -- -- -- -- -- -- -- -- -- -- -- -- -- -- -- --
WIND SPEED(MPH) 7 7 6 5 5 5 5 5 5 5 5 5 7 8 8 7 5 2 5 5 6 7 7 6 1 2 6 5 2 2 5 6 5 5 5 5 2 2 6 6
WIND DIR N N N N N N N N N NW N N N N N N N N N N N N N N NE NW NW N N NE N N E E W NE SE S S SW
HeatIndex 82 76 74 72 72 70 70 68 67 67 67 68 83 90 90 87 74 72 70 70 84 93 93 90 72 72 93 90 72 72 90 88 72 70 90 86 72 70 88 87
Rain Showers -- -- -- -- -- -- -- -- -- -- -- -- -- -- -- -- -- -- -- -- -- -- -- -- -- -- -- -- -- -- Slight Chance Slight Chance Slight Chance Chance Chance Chance Chance Chance Chance Chance
Thunder Storm -- -- -- -- -- -- -- -- -- -- -- -- -- -- -- -- -- -- -- -- -- -- -- -- -- -- -- -- -- -- Slight Chance Slight Chance Slight Chance Chance Chance Chance Chance Chance Chance Chance
WIND CHILL -- -- -- -- -- -- -- -- -- -- -- -- -- -- -- -- -- -- -- -- -- -- -- -- -- -- -- -- -- -- -- -- -- -- -- -- -- -- -- --
SPRAY COND
DRY COND
LIVESTOCK HEATSTRESS 75.33 73.45 71.91 70.62 70.84 69.20 69.38 67.65 66.68 66.68 66.86 67.65 75.78 78.66 78.66 78.21 72.66 71.06 69.57 69.57 77.21 80.77 80.77 79.52 71.27 71.27 80.29 79.96 70.84 71.06 78.97 78.08 70.84 69.01 79.67 77.58 71.49 69.75 78.87 77.83

Click on individual weather variable above in left-hand column (ie., TEMP, RH, QPF 12HR) to view state forecast maps






NWS 48 Hr. Forecast Maps,

Regional Hourly Observations For CALLOWAY County, Kentucky
Issued at 600 PM EDT SUN JUL 22 2018
WESTERN AND SOUTH CENTRAL KENTUCKY
  
CITY           SKY/WX    TMP DP  RH WIND       PRES   REMARKS
PADUCAH        PTSUNNY   83  67  58 NW14G26   29.81S                  
HENDERSON      LGT RAIN  73  70  90 VRB6      29.80R                  
OWENSBORO      TSTM      74  70  87 NW16G24   29.78R                  
HOPKINSVILLE   FAIR      76  67  76 NW7       29.79R                  
BOWLING GREEN  CLOUDY    78  69  73 NW9G22    29.76F                  
GLASGOW        LGT RAIN  72  68  87 W3        29.76S                  


Current NOWCAST not available:
Nowcasts are not issued routinely during fair weather. Only when
precipitation or other significant weather is occuring in this county will these
forecasts be issued. Currently, there is no short term forecast in effect.


Fire Weather Forecast For CALLOWAY County, KY
Provided by the National Weather Service:

Issued at: Sun Jul 22 18:05:01 EDT 2018

Cloud Cover           PCldy        PCldy        MClear       PCldy        
Precip Type           NONE         NONE         NONE         NONE         
Chance Precip (%)     0            0            0            0            
High Temperature(F)                81-85                     84-88        
Minimum RH(%)                      53-58                     52-57        
Low Temperature(F)    65-69                     64-68                     
Maximum RH(%)         95-100                    95-100                    
Temp (24h Trend)      67 (-1)      85 (+2)      66           88           
RH % (24h Trend)      99 (+6)      56 (-2)      97           55           
20FTWND-AM(MPH)                    N 6-10                    N 4-8        
20FTWND-PM(MPH)       N 5-9        N 7-11       N 3-7        N 6-10       
Precip Amount         0.00         0.00         0.00         0.00         
Precip Duration                                                           
Precip Begin                                                              
Precip End                                                                
1700'Mix Hgt Temp                  76                        79           
Mixing Hgt(FT-AGL)                 5705                      6724         
Transport Wind (KTS)               N 11                      N 11         
Transport Wind (M/S)               N  6                      N  6         
Vent Rate (M/S-M)                  10434                     12300        
Dispersion Index                   Good                      Good         
LAL                   2            1            1            1            
Haines Index          3            3            3            2            
Stability(DSI)        N/A          SLGT UNSTBL  N/A          MOD UNSTBL   

Remarks...None.

.Forecast for days 3 through 7...

.TUESDAY NIGHT...Mostly clear. Lows in the upper 60s. North winds
5 to 10 mph. 
.WEDNESDAY...Sunny. Highs in the upper 80s. North winds 5 to
10 mph. 
.WEDNESDAY NIGHT...Mostly clear. Lows in the upper 60s. North
winds around 5 mph. 
.THURSDAY...Sunny with a 20 percent chance of showers and
thunderstorms. Highs in the lower 90s. Northwest winds around
5 mph. 
.THURSDAY NIGHT...Partly cloudy. Lows around 70. North winds
around 5 mph. 
.FRIDAY...Mostly sunny with a 20 percent chance of showers and
thunderstorms. Highs in the upper 80s. Northeast winds around
5 mph. 
.FRIDAY NIGHT...Mostly cloudy with a 20 percent chance of showers
and thunderstorms. Lows in the upper 60s. Northeast winds around
5 mph. 
.SATURDAY...Partly sunny with a 50 percent chance of showers and
thunderstorms. Highs in the upper 80s. South winds around 5 mph
shifting to the northwest in the afternoon. 
.SATURDAY NIGHT...Mostly cloudy with a 50 percent chance of
showers and thunderstorms. Lows in the upper 60s. East winds
around 5 mph shifting to the southeast after midnight. 
.SUNDAY...Mostly cloudy with a 50 percent chance of showers and
thunderstorms. Highs in the mid 80s. South winds around 5 mph. 

SPC's Fire Weather Web Tool (Excellent!), SPC's Fire Weather Outlooks, NWS Fire Weather WEB, Fire Danger Class Map,
Keetch-Byram Drought Index, ROMAN Web, Haines Index ,
WFAS's 10-hr Dead Fuel Moist., WFAS's 100-hr Dead Fuel Moist., Probablity of Ignition, Visual blackness Map, Palmer Drought Index, HPC's Rainfall Forecast Maps


Hazardous Weather Outlook For CALLOWAY County, Kentucky
316 PM CDT Sun Jul 22 2018

 DAY ONE  This Afternoon and Tonight

There will be a chance of thunderstorms through early this evening
across the east. Lightning and brief heavy rain will be the 
primary hazards.

 DAYS TWO THROUGH SEVEN  Monday through Saturday

The chance of thunderstorms will increase toward the end of the
week with the best chance on Saturday. At this time, severe 
weather is not expected.

 SPOTTER INFORMATION STATEMENT  

Spotter activation will not be needed.

Latest CALLOWAY County, Kentucky Watches, Warnings and Advisories.
Additional Drought Info.: UKAWC Drought Page, Kentucky Drought Watch


7-Day Forecast For CALLOWAY County, KY

TONIGHT
Mostly cloudy. Lows in the upper 60s. North winds 5 to 10 mph.

MONDAY
Partly sunny. Highs in the lower 80s. North winds 5 to 10 mph.

MONDAY NIGHT
Mostly clear. Lows in the upper 60s. North winds around 5 mph.

TUESDAY
Partly sunny. Highs in the mid 80s. North winds 5 to 10 mph.

TUESDAY NIGHT
Mostly clear. Lows in the upper 60s. North winds 5 to 10 mph.

WEDNESDAY
Mostly sunny. Highs in the upper 80s.

WEDNESDAY NIGHT
Clear. Lows in the upper 60s.

THURSDAY
Mostly sunny. Highs around 90.

THURSDAY NIGHT
Partly cloudy. Lows in the upper 60s.

FRIDAY
Partly sunny. A 20 percent chance of showers and thunderstorms in the afternoon. Highs in the upper 80s.

FRIDAY NIGHT
Partly cloudy with a 20 percent chance of showers and thunderstorms. Lows in the upper 60s.

SATURDAY
Partly sunny with a 40 percent chance of showers and thunderstorms. Highs in the mid 80s.

SATURDAY NIGHT
Mostly cloudy with a 50 percent chance of showers and thunderstorms. Lows in the upper 60s.

SUNDAY
Mostly cloudy with a 50 percent chance of showers and thunderstorms. Highs in the mid 80s.

Ag Weather Center, Department of Biosystems & Agricultural Engineering, University of Kentucky